Location: *
(46.1200°N, 11.2700°E)
Time: 15:41:13
(UTC+00:00)

Okean 3 - Pass Details

Date: 02 March 2021
Orbit: 576 x 600 km, 82.5° (Epoch: 23 April)

Event Time Altitude Azimuth Distance (km) Brightness Sun altitude
Rises 18:28:36 0° 1° (N) 2,831 7.0 -15.6°
Reaches altitude 10° 18:31:05 10° 13° (NNE) 1,929 6.0 -16.1°
Enters shadow 18:34:24 27° 64° (ENE) 1,158 4.5 -16.6°
